Location: General Nathan Twining Observatory
(34.5931°N, 106.8201°W)
Time: 04:02:54
(UTC-06:00)

ADEOS II - Pass Details

Date: 23 June 2018
Orbit: 799 x 802 km, 98.4° (Epoch: 23 September)

Event Time Altitude Azimuth Distance (km) Brightness Sun altitude
Rises 05:19:09 0° 356° (N) 3,317 5.8 -7.1°
Reaches altitude 10° 05:21:59 10° 341° (NNW) 2,383 4.8 -6.7°
Maximum altitude 05:25:52 22° 293° (WNW) 1,712 3.5 -6.0°
Drops below altitude 10° 05:29:46 10° 245° (WSW) 2,374 3.9 -5.3°
Enters shadow 05:30:53 - 238° (WSW) 2,717 4.1 -5.1°
